EW1689 Weather Reports


Display with metric or nautical units.
time (UTC)temp
F
wind
direction
speed
MPH
gust
MPH
rain 1hr
in
rain 24hr
in
rain mn
in
humidity
%
barometer
mb
20260906040517 88 0.0 0.0 0.00 0.00 0.00 34 1012.1
20260906035537 88 0.0 0.0 0.00 0.00 0.00 34 1012.1
20260906034638 89 0.0 0.0 0.00 0.00 0.00 33 1012.1
20260906033517 89 0.0 0.0 0.00 0.00 0.00 33 1012.0
20260906032557 90 0.0 0.0 0.00 0.00 0.00 32 1012.0
20260906031557 90 0.0 1.0 0.00 0.00 0.00 32 1011.9
20260906030517 90 0.0 1.0 0.00 0.00 0.00 31 1011.8
20260906025536 90 0.0 1.0 0.00 0.00 0.00 32 1011.7
20260906024516 90 0 1.0 3.0 0.00 0.00 0.00 31 1011.6
20260906023517 90 0 1.0 4.0 0.00 0.00 0.00 32 1011.4
20260906022517 90 0 2.0 4.0 0.00 0.00 0.00 33 1011.2
20260906021517 91 0 1.0 3.0 0.00 0.00 0.00 32 1011.2
20260906020516 91 0 1.0 2.0 0.00 0.00 0.00 31 1011.2
20260906015516 91 0.0 2.0 0.00 0.00 0.00 31 1011.2
20260906014517 92 0.0 2.0 0.00 0.00 0.00 32 1011.2
20260906013516 92 0 1.0 2.0 0.00 0.00 0.00 31 1011.2
20260906012517 93 0.0 2.0 0.00 0.00 0.00 29 1011.3
20260906011517 93 0 1.0 3.0 0.00 0.00 0.00 30 1011.4
20260906010516 94 0 1.0 5.0 0.00 0.00 0.00 28 1011.4
20260906005516 95 0 1.0 3.0 0.00 0.00 0.00 28 1011.5
20260906004516 95 0 1.0 5.0 0.00 0.00 0.00 28 1011.7
20260906003516 95 0 1.0 3.0 0.00 0.00 0.00 28 1011.6
20260906002516 96 0 1.0 3.0 0.00 0.00 0.00 27 1011.6
20260906001516 96 0 1.0 4.0 0.00 0.00 0.00 27 1011.5
20260906000516 97 0 1.0 5.0 0.00 0.00 0.00 27 1011.4
20260905235516 97 0 1.0 4.0 0.00 0.00 0.00 28 1011.5
20260905234556 98 203 2.0 4.0 0.00 0.00 0.00 28 1011.7
20260905233516 99 180 2.0 5.0 0.00 0.00 0.00 27 1011.7
20260905232516 100 203 2.0 5.0 0.00 0.00 0.00 26 1011.7
20260905231537 101 225 1.0 3.0 0.00 0.00 0.00 26 1011.9
20260905230516 101 203 1.0 3.0 0.00 0.00 0.00 27 1011.8
20260905225517 101 180 2.0 6.0 0.00 0.00 0.00 28 1011.9
20260905224516 101 203 1.0 6.0 0.00 0.00 0.00 27 1011.9
20260905223516 101 225 1.0 3.0 0.00 0.00 0.00 29 1012.0
20260905222516 100 248 1.0 3.0 0.00 0.00 0.00 28 1012.1
20260905221516 99 180 2.0 8.0 0.00 0.00 0.00 30 1012.3
20260905220516 100 203 2.0 5.0 0.00 0.00 0.00 28 1012.4
20260905215516 101 203 2.0 6.0 0.00 0.00 0.00 27 1012.7
20260905214516 101 203 1.0 2.0 0.00 0.00 0.00 27 1012.7
20260905213516 100 180 1.0 3.0 0.00 0.00 0.00 28 1012.9
20260905212516 99 248 1.0 3.0 0.00 0.00 0.00 30 1013.0
20260905211516 100 180 3.0 7.0 0.00 0.00 0.00 28 1013.2
20260905210516 100 0.0 2.0 0.00 0.00 0.00 28 1013.2
20260905205516 98 180 1.0 4.0 0.00 0.00 0.00 29 1013.3
20260905204536 99 180 2.0 4.0 0.00 0.00 0.00 28 1013.6
20260905203515 99 180 2.0 7.0 0.00 0.00 0.00 29 1013.7
20260905202516 99 180 2.0 5.0 0.00 0.00 0.00 27 1013.8
20260905201537 99 203 1.0 3.0 0.00 0.00 0.00 29 1014.0
20260905200515 98 180 1.0 3.0 0.00 0.00 0.00 29 1014.0
20260905195516 97 203 2.0 5.0 0.00 0.00 0.00 28 1014.1
20260905194535 97 180 2.0 5.0 0.00 0.00 0.00 27 1014.3
20260905193516 99 180 1.0 4.0 0.00 0.00 0.00 26 1014.4
20260905192516 99 270 1.0 3.0 0.00 0.00 0.00 25 1014.6
20260905191555 98 0 1.0 3.0 0.00 0.00 0.00 28 1014.8
20260905190556 97 0 1.0 4.0 0.00 0.00 0.00 27 1014.9
20260905185515 97 0 1.0 4.0 0.00 0.00 0.00 29 1015.1
20260905184536 96 0 1.0 2.0 0.00 0.00 0.00 30 1015.1
20260905183515 95 0 1.0 3.0 0.00 0.00 0.00 30 1015.2
20260905182517 95 0 2.0 7.0 0.00 0.00 0.00 30 1015.2
20260905181517 95 0 1.0 3.0 0.00 0.00 0.00 30 1015.2
20260905180517 96 0 1.0 3.0 0.00 0.00 0.00 29 1015.4
20260905175517 95 0.0 1.0 0.00 0.00 0.00 31 1015.3
20260905174538 93 0.0 1.0 0.00 0.00 0.00 33 1015.2
20260905173517 93 0 1.0 3.0 0.00 0.00 0.00 31 1015.2
20260905172517 93 0 2.0 4.0 0.00 0.00 0.00 31 1015.3
20260905171517 94 0.0 1.0 0.00 0.00 0.00 31 1015.4
20260905170517 92 0.0 1.0 0.00 0.00 0.00 33 1015.4
20260905165537 91 0.0 2.0 0.00 0.00 0.00 33 1015.3
20260905164538 91 0.0 1.0 0.00 0.00 0.00 34 1015.2
20260905163517 90 0 1.0 2.0 0.00 0.00 0.00 35 1015.1
20260905162517 90 0 1.0 3.0 0.00 0.00 0.00 35 1015.3
20260905161517 90 0.0 1.0 0.00 0.00 0.00 36 1015.2
20260905160517 89 0 1.0 3.0 0.00 0.00 0.00 36 1015.1
20260905155537 89 0.0 2.0 0.00 0.00 0.00 37 1015.0
20260905154517 89 0 1.0 3.0 0.00 0.00 0.00 39 1014.9
20260905153517 88 0 1.0 2.0 0.00 0.00 0.00 40 1014.9
20260905152517 87 0.0 1.0 0.00 0.00 0.00 39 1014.8
20260905151517 88 90 1.0 2.0 0.00 0.00 0.00 38 1014.8
20260905150517 88 90 1.0 3.0 0.00 0.00 0.00 38 1014.6
20260905145517 88 90 1.0 2.0 0.00 0.00 0.00 39 1014.7
20260905144517 86 90 1.0 2.0 0.00 0.00 0.00 40 1014.7
20260905143517 85 0.0 0.0 0.00 0.00 0.00 41 1014.7
20260905142517 85 0.0 2.0 0.00 0.00 0.00 41 1014.5
20260905141517 84 0.0 0.0 0.00 0.00 0.00 42 1014.2
20260905140517 83 0.0 1.0 0.00 0.00 0.00 43 1014.1
20260905135537 83 0.0 0.0 0.00 0.00 0.00 44 1014.0
20260905134517 82 0.0 1.0 0.00 0.00 0.00 44 1014.0
20260905133517 81 0.0 0.0 0.00 0.00 0.00 46 1013.7
20260905132517 81 0.0 1.0 0.00 0.00 0.00 46 1013.6
20260905131518 80 0.0 0.0 0.00 0.00 0.00 46 1013.5
20260905130517 81 0.0 1.0 0.00 0.00 0.00 46 1013.4
20260905125517 81 0.0 1.0 0.00 0.00 0.00 45 1013.3
20260905124517 81 0.0 2.0 0.00 0.00 0.00 45 1013.3
20260905123517 81 0.0 1.0 0.00 0.00 0.00 45 1013.3
20260905122517 82 0 1.0 2.0 0.00 0.00 0.00 43 1013.3
20260905121517 82 0.0 0.0 0.00 0.00 0.00 43 1013.2
20260905120537 83 0.0 2.0 0.00 0.00 0.00 42 1013.2
20260905115517 83 0.0 0.0 0.00 0.00 0.00 42 1013.3
20260905114537 83 0.0 0.0 0.00 0.00 0.00 42 1013.2
20260905113516 83 0.0 0.0 0.00 0.00 0.00 41 1013.1
20260905112517 83 0.0 0.0 0.00 0.00 0.00 42 1013.1
20260905111516 83 0.0 1.0 0.00 0.00 0.00 41 1013.1
20260905110516 83 0.0 0.0 0.00 0.00 0.00 41 1013.1
20260905105537 84 0.0 0.0 0.00 0.00 0.00 41 1013.3
20260905104516 84 0.0 0.0 0.00 0.00 0.00 41 1013.3
20260905103517 84 0.0 0.0 0.00 0.00 0.00 40 1013.3
20260905102536 85 0.0 0.0 0.00 0.00 0.00 39 1013.2
20260905101516 85 0.0 0.0 0.00 0.00 0.00 39 1013.2
20260905100516 85 0.0 0.0 0.00 0.00 0.00 39 1013.1
20260905095516 85 0.0 0.0 0.00 0.00 0.00 39 1013.1
20260905094516 86 0.0 0.0 0.00 0.00 0.00 39 1013.1
20260905093516 86 0.0 1.0 0.00 0.00 0.00 38 1013.2
20260905092516 86 0.0 1.0 0.00 0.00 0.00 37 1013.0
20260905091516 87 0 1.0 4.0 0.00 0.00 0.00 37 1013.0
20260905090536 87 0.0 2.0 0.00 0.00 0.00 37 1013.0
20260905085516 87 0 1.0 2.0 0.00 0.00 0.00 37 1013.0
20260905084516 87 0 2.0 5.0 0.00 0.00 0.00 36 1012.9
20260905083516 87 0 1.0 4.0 0.00 0.00 0.00 36 1012.9
20260905082516 87 0 2.0 4.0 0.00 0.00 0.00 35 1012.8
20260905081516 88 0 1.0 2.0 0.00 0.00 0.00 35 1012.8
20260905080516 88 0 1.0 4.0 0.00 0.00 0.00 35 1012.9
20260905075516 88 0 1.0 4.0 0.00 0.00 0.00 35 1013.0
20260905074556 88 0 1.0 4.0 0.00 0.00 0.00 34 1013.0
20260905073516 89 0 1.0 4.0 0.00 0.00 0.00 34 1013.0
20260905072536 89 0 1.0 3.0 0.00 0.00 0.00 34 1012.8
20260905071516 89 0 1.0 4.0 0.00 0.00 0.00 33 1012.8
20260905070536 89 0 1.0 4.0 0.00 0.00 0.00 32 1012.9
20260905065517 89 0 1.0 4.0 0.00 0.00 0.00 32 1012.7
20260905064517 90 0 2.0 4.0 0.00 0.00 0.00 32 1012.7
20260905063517 90 0 1.0 3.0 0.00 0.00 0.00 31 1012.8
20260905062517 90 0 2.0 4.0 0.00 0.00 0.00 31 1012.7
20260905061538 90 0 2.0 4.0 0.00 0.00 0.00 31 1012.7
20260905060517 90 0 2.0 4.0 0.00 0.00 0.00 31 1012.6
20260905055517 90 0 2.0 5.0 0.00 0.00 0.00 31 1012.5
20260905054517 90 0 2.0 5.0 0.00 0.00 0.00 32 1012.5
20260905053517 90 0 1.0 2.0 0.00 0.00 0.00 33 1012.5
20260905052517 90 0.0 1.0 0.00 0.00 0.00 33 1012.3
20260905051517 90 0.0 1.0 0.00 0.00 0.00 33 1012.4
20260905050517 90 0.0 2.0 0.00 0.00 0.00 33 1012.4
20260905045517 90 0 1.0 3.0 0.00 0.00 0.00 33 1012.3
20260905044517 90 0.0 1.0 0.00 0.00 0.00 33 1012.3
20260905043517 91 0.0 1.0 0.00 0.00 0.00 32 1012.3
20260905042517 91 0.0 1.0 0.00 0.00 0.00 31 1012.2
20260905041517 92 0.0 2.0 0.00 0.00 0.00 31 1012.2